Location: Praha
(50.0830°N, 14.4670°E)
Time: 19:39:11
(UTC+02:00)

ISS - Pass Details

Date: 30 April 2021
Orbit: 418 x 422 km, 51.6° (Epoch: 13 April)

Event Time Altitude Azimuth Distance (km) Brightness Sun altitude
Exits shadow 04:17:36 16° 197° (SSW) 1,180 -2.0 -11.9°
Maximum altitude 04:19:36 28° 146° (SE) 814 -2.4 -11.7°
Drops below altitude 10° 04:22:34 10° 85° (E) 1,508 -0.1 -11.3°
Sets 04:24:50 0° 74° (ENE) 2,376 1.4 -11.0°
